SCP
0 0 0 0 0 0 0 0 0 0 0 0 0 0 0 0 0 0 0 0 0 0 -0 0 0 0 0 0 0 0 0 0 0 0 0 0 0 0 0 0 0 0 0 0
0 0 0 0 0 0 0 0 0 0 0 0 0 0 0 0 0 0 0 0 0 0 0 0 0 0 0 0 0 0 0 0 0 0 0 0 0 0 0 0 0 0 0 0
0 0 0 0 0 0 0 0 0 0 0 0 0 0 0 0 0 0 0 0 0 0 0 0 0 0 0 0 0 0 0 0 0 0 0 0 0 0 0 0 0 0 0 0
0 0 0 0 0 0 0 0 0 0 0 0 0 0 0 0 -0 0 0 0 0 0 0 0 0 0 0 0 0 0 0 0 0 0 0 0 0 0 0 0 0 0 0 0
0 0 0 0 0 0 0 0 0 0 0 0 0 0 -0 0 0 0 -0 0 0 0 0 0 0 0 0 0 0 0 0 0 0 0 0 0 0 0 0 0 0 0 0 0
0 0 0 0 0 0 0 0 0 0 0 0 0 0 0 0 0 0 0 0 0 0 0 0 0 0 0 0 0 0 0 0 0 0 0 0 0 0 0 0 0 0 0 0
0 0 0 0 0 0 0 0 0 0 0 0 0 0 0 0 0 0 0 0 0 0 0 0 0 0 0 0 0 0 0 0 0 0 0 0 0 0 0 0 0 0 0 0
0 0 0 0 0 0 0 0 0 0 0 0 0 0 0 -0 0 0 0 0 0 0 0 0 0 0 0 0 0 0 0 0 0 0 0 0 0 0 0 0 0 0 0 0
0 0 0 0 0 0 0 0 0 0 0 0 0 0 0 0 0 0 0 0 0 0 0 0 0 0 0 0 0 0 0 0 0 0 0 0 0 0 0 0 0 0 0 0
0 0 0 0 0 0 0 0 0 0 0 0 0 0 0 0 0 0 0 0 0 0 0 0 0 0 0 0 0 0 0 0 0 0 0 0 0 0 0 0 0 0 0 0
0 0 0 0 0 0 0 0 0 0 0 0 0 0 0 0 0 0 0 0 0 0 0 0 0 0 0 0 0 0 0 0 0 0 0 0 0 0 0 0 0 0 0 0
0 0 0 0 0 0 0 0 0 0 0 0 0 0 0 0 0 0 0 0 0 0 0 0 0 0 0 0 0 0 0 0 0 0 0 0 0 0 0 0 0 0 0 0
0 0 0 0 0 0 0 0 0 0 0 0 0 0 0 0 0 0 0 0 0 0 0 0 0 0 0 0 0 0 0 0 0 0 0 0 0 0 0 0 0 0 0 0
0 0 0 0 0 0 0 0 0 0 0 0 0 0 0 0 0 0 0 0 0 0 0 0 0 0 0 0 0 0 0 0 0 0 0 0 0 0 0 0 0 0 0 0
0 0 0 0 0 0 0 0 0 0 0 0 0 0 0 0 0 0 0 0 0 0 0 0 0 0 0 0 0 0 0 0 0 0 0 0 0 0 0 0 0 0 0 0
0 0 0 0 0 0 0 0 0 0 0 0 0 0 0 0 0 0 0 0 0 0 0 0 0 0 0 0 0 0 0 0 0 0 0 0 0 0 0 0 0 0 0 0
0 0 0 0 0 0 0 0 0 0 0 0 0 0 0 0 0 0 0 0 0 0 0 0 0 0 0 0 0 0 0 0 0 0 0 0 0 0 0 0 0 0 0 0
0 0 0 0 0 0 0 0 0 0 0 0 0 0 0 0 0 0 0 0 0 0 0 0 0 0 0 0 0 0 0 0 0 0 0 0 0 0 0 0 0 0 0 0
0 0 0 0 0 0 0 0 0 0 0 0 0 0 0 0 0 0 0 0 0 0 0 0 0 0 0 0 0 0 0 0 0 0 0 0 0 0 0 0 0 0 0 0
0 0 0 0 0 0 0 0 0 0 0 0 0 0 0 0 0 0 0 0 0 0 0 0 0 0 0 0 0 0 0 0 0 0 0 0 0 0 0 0 0 0 0 0
0 0 0 0 0 0 0 0 0 0 0 0 0 0 0 0 0 0 0 0 0 0 0 0 0 0 0 0 0 0 0 0 0 0 0 0 0 0 0 0 0 0 0 0
0 0 0 0 0 0 0 0 0 0 0 0 0 0 0 0 0 0 0 0 0 0 0 0 0 0 0 0 0 0 0 0 0 0 0 0 0 0 0 0 0 0 0 0
0 0 0 0 0 0 0 0 0 0 0 0 0 0 0 0 0 0 0 0 0 0 0 0 0 0 0 0 0 0 0 0 0 0 0 0 0 0 0 0 0 0 0 0
0 0 0 0 0 0 0 0 0 0 0 0 0 0 0 0 0 0 0 0 0 0 0 0 0 0 0 0 0 0 0 0 0 0 0 0 0 0 0 0 0 0 0 0
0 0 0 0 0 0 0 0 0 0 0 0 0 0 0 0 0 0 0 0 0 0 0 0 0 0 0 0 0 0 0 0 0 0 0 0 0 0 0 0 0 0 0 0
0 0 0 0 0 0 0 0 0 0 0 0 0 0 0 0 0 0 0 0 0 0 0 0 0 0 0 0 0 0 0 0 0 0 0 0 0 0 0 0 0 0 0 0
Wind_Speed_500mb
25 17 27 28 16 10 12 9 9 6 5 9 12 15 15 15 15 25 37 40 45 49 41 45 45 43 42 43 48 50 52 50 51 53 51 49 48 43 44 45 41 41 38 39
10 29 13 16 16 13 9 12 9 0 2 8 6 20 14 14 22 35 42 43 50 51 52 51 51 51 51 50 48 52 54 53 53 54 55 52 46 45 44 43 41 44 46 44
19 15 23 16 11 16 7 14 11 6 3 3 4 14 13 11 33 44 40 40 42 54 58 56 55 55 55 57 53 54 54 56 53 52 54 55 56 55 53 51 48 45 47 49
12 7 23 15 12 12 11 13 11 11 8 7 5 10 10 14 19 15 54 56 62 61 61 58 58 57 56 52 51 49 55 59 56 56 57 60 62 61 52 46 40 40 42 39
12 19 24 12 17 16 11 13 13 6 8 4 2 4 13 4 12 17 45 63 70 70 70 72 63 55 52 53 48 46 47 50 55 59 61 62 65 65 60 58 52 47 41 39
6 6 17 15 9 7 20 15 15 10 6 5 11 10 9 11 20 17 42 59 69 76 72 65 61 59 59 55 53 51 46 48 50 54 56 60 61 62 62 61 58 55 52 48
4 4 4 12 16 8 8 13 6 3 3 10 2 3 14 18 18 12 8 15 13 18 28 33 38 46 49 52 53 52 51 45 46 49 49 49 51 55 57 56 58 57 54 52
26 10 17 9 14 19 14 17 11 13 8 6 1 13 12 25 23 34 36 18 11 8 13 17 21 23 26 31 34 33 35 36 36 37 39 40 44 48 50 53 54 53 52 50
15 7 2 5 9 25 12 11 15 14 3 4 9 12 22 14 18 28 23 25 26 13 14 20 22 20 20 20 20 19 17 18 22 27 30 34 38 43 47 51 53 49 45 43
15 11 1 5 11 6 20 23 8 4 8 8 6 9 11 4 5 6 12 27 30 29 28 27 27 24 20 16 14 14 15 16 21 24 25 28 32 34 36 37 39 43 43 46
13 10 6 11 13 17 9 14 6 12 9 10 2 11 10 9 9 8 16 20 33 35 32 31 26 21 18 16 14 12 12 13 14 15 16 18 21 22 23 24 24 26 29 27
11 12 9 9 1 1 5 16 13 13 10 1 6 10 2 9 14 18 20 25 30 33 34 29 26 23 19 16 13 11 9 10 11 13 14 15 16 17 19 19 16 14 9 9
17 3 10 7 6 4 10 2 10 13 6 13 9 10 3 4 2 4 19 27 30 34 34 30 25 23 20 16 12 10 9 8 9 9 11 11 11 12 12 9 7 7 9 13
22 8 13 20 10 16 14 12 12 13 6 10 14 7 10 9 7 10 22 30 35 35 33 29 22 17 14 13 11 10 10 9 9 10 11 10 8 8 10 10 11 12 14 17
10 9 5 11 8 14 14 29 24 36 42 25 31 28 10 16 17 20 27 31 31 32 32 27 24 20 19 19 19 19 19 18 17 15 12 11 12 12 12 12 14 15 13 14
5 6 8 9 8 8 10 21 36 42 28 24 9 11 13 20 26 26 35 37 38 34 25 22 22 20 21 23 24 25 23 23 20 18 17 16 15 14 13 13 11 11 11 14
12 11 7 4 4 12 7 28 25 24 13 34 24 17 14 12 27 50 47 46 41 32 28 23 21 16 14 15 19 22 26 27 24 21 19 16 16 16 13 12 12 14 16 17
19 15 6 8 4 5 18 17 31 42 25 34 5 19 28 34 69 66 54 49 39 34 29 22 12 11 13 15 17 22 25 28 26 22 19 17 16 17 16 14 13 15 19 23
4 13 7 14 9 8 14 15 18 19 31 23 38 23 37 37 29 28 42 48 44 42 31 22 14 11 10 12 12 13 18 22 22 20 17 17 18 17 17 17 16 17 19 21
8 10 9 8 14 23 15 19 24 16 29 27 42 21 30 38 15 29 66 61 54 39 29 20 18 15 11 8 7 9 14 16 17 16 17 18 17 16 15 15 16 19 21 23
8 7 19 4 6 19 9 19 50 18 26 25 49 52 52 25 56 56 53 54 43 37 30 25 20 14 10 8 5 7 10 14 14 13 14 13 12 14 15 17 20 23 25 27
14 15 10 8 4 36 13 23 35 17 13 16 16 43 63 62 36 34 57 54 43 37 32 25 18 12 8 5 2 3 4 6 9 11 12 13 15 18 19 22 24 27 29 30
4 14 14 22 19 5 47 14 39 24 27 23 22 25 45 56 44 56 58 53 44 33 27 22 16 11 7 3 2 2 3 5 8 11 14 17 20 22 24 26 28 30 34 34
5 5 8 9 10 12 59 16 38 22 16 22 25 33 46 56 59 60 57 48 38 30 24 20 16 11 7 4 5 7 9 10 12 14 18 21 24 25 28 29 32 34 37 40
6 18 12 3 5 10 20 31 38 36 30 35 36 42 52 60 54 50 47 40 33 26 22 17 14 10 5 4 6 10 15 17 19 22 24 27 30 31 32 33 35 38 40 40
12 13 14 10 35 20 24 59 41 48 53 55 62 57 50 49 48 42 39 33 29 23 17 11 7 6 9 12 16 20 22 24 26 28 30 32 32 34 36 38 42 46 49 51
Wind_Direction_500mb
174 173 194 185 166 155 146 133 163 201 198 159 201 249 235 216 221 233 235 233 229 228 227 228 228 229 231 230 232 234 234 237 239 241 241 241 248 252 256 248 248 250 253 256
129 204 191 150 141 131 136 154 196 294 60 157 169 254 261 216 243 226 230 237 239 239 237 235 234 232 235 237 238 238 237 239 240 244 249 252 259 263 264 261 258 255 255 257
171 183 156 141 144 141 160 167 183 161 83 60 50 283 261 242 239 249 245 240 246 246 246 242 240 237 237 239 242 245 246 245 243 245 248 250 254 256 256 254 257 260 259 259
161 128 149 140 168 130 163 194 143 130 108 221 102 274 257 237 234 219 242 241 242 244 249 249 243 240 239 244 249 252 253 247 246 244 246 246 250 254 260 265 269 268 267 268
176 153 155 153 173 159 210 130 136 102 104 59 359 274 264 17 254 238 242 237 241 245 251 251 247 243 241 242 243 242 248 246 240 241 245 249 251 257 261 262 264 265 266 267
111 159 161 161 80 137 155 86 57 55 85 282 215 170 259 193 209 230 228 233 238 243 249 256 252 244 239 239 237 239 243 239 235 236 240 244 249 253 257 261 263 266 268 269
89 182 127 140 92 39 95 104 41 10 350 220 91 180 254 253 242 212 224 210 242 259 251 251 244 237 236 234 232 233 233 237 239 236 237 240 247 251 256 260 262 264 265 266
164 199 175 182 172 158 175 154 151 182 202 227 233 232 242 233 262 249 236 218 220 267 232 212 204 207 209 209 212 219 225 230 235 237 238 241 244 249 255 260 263 265 267 266
150 188 70 157 158 153 187 188 148 106 48 57 215 296 302 258 259 256 230 215 216 198 184 173 166 167 173 180 186 195 207 215 225 232 237 243 248 255 261 262 263 262 261 263
180 117 277 167 98 29 179 150 165 48 138 251 279 273 239 236 157 152 199 204 179 162 155 154 152 157 165 173 184 198 210 222 231 238 242 247 250 253 257 258 259 257 256 258
123 105 197 140 210 160 123 181 103 122 159 171 200 261 220 260 290 277 240 200 175 165 159 156 153 156 162 166 173 179 189 200 215 224 232 239 247 253 256 258 255 250 246 244
166 115 142 180 243 169 183 172 154 182 209 169 146 272 125 283 274 257 243 191 179 167 158 156 154 152 151 152 154 163 178 201 221 235 242 250 261 269 275 272 270 268 269 251
176 123 101 56 353 27 206 244 126 102 95 190 152 254 301 8 16 123 161 169 169 162 157 154 154 155 155 156 167 177 191 203 220 233 242 243 243 252 260 248 242 249 253 259
122 150 162 183 194 130 157 163 162 137 184 163 217 206 241 201 197 153 145 154 157 155 154 155 157 156 165 178 193 209 224 235 240 243 245 252 257 262 262 246 231 231 245 243
136 140 94 32 130 123 151 176 179 198 217 197 233 215 213 205 194 185 160 159 166 166 163 164 167 180 199 214 222 229 232 235 241 244 249 246 243 243 251 243 225 231 233 239
5 175 110 29 10 125 137 175 188 208 209 239 129 231 224 202 188 198 193 185 183 177 178 187 196 207 213 217 221 222 228 229 231 236 239 238 238 244 249 240 222 219 231 235
117 124 99 187 349 88 354 207 190 208 193 215 217 194 180 191 202 214 205 199 191 192 194 207 214 219 231 235 239 234 231 233 232 231 233 238 243 247 248 236 219 215 222 231
148 124 99 149 89 146 246 179 190 202 203 211 118 171 180 203 213 221 217 201 201 203 209 206 201 228 234 236 235 233 229 231 230 230 235 241 243 246 250 256 245 231 228 230
158 141 116 152 188 289 245 213 158 165 237 200 216 193 196 211 219 236 221 225 217 211 202 188 193 192 197 210 220 222 219 221 223 225 229 234 237 238 239 239 237 234 232 229
51 92 119 131 155 209 238 165 149 89 273 195 204 182 180 168 201 234 221 209 201 194 187 188 191 189 189 192 202 214 219 217 218 222 225 231 235 238 238 238 238 234 228 229
88 44 199 111 219 273 252 154 146 155 256 171 204 202 184 187 214 228 205 194 187 179 175 173 169 165 155 156 170 197 210 212 221 228 233 238 245 247 245 244 243 241 237 233
149 139 189 85 133 253 145 140 168 194 159 162 182 204 197 205 206 191 181 178 174 168 159 160 161 159 150 134 157 224 239 237 235 239 242 245 248 250 248 243 241 238 237 235
171 181 163 178 212 213 177 183 200 179 184 193 195 191 204 197 180 167 163 163 159 156 155 156 157 153 144 128 50 2 296 259 252 250 250 251 250 248 247 245 243 237 236 233
245 145 155 100 207 204 187 184 185 187 195 191 195 198 192 182 168 159 155 151 152 155 159 156 157 160 175 217 266 292 291 280 267 259 257 254 254 254 251 247 244 239 235 232
171 140 161 262 43 75 212 195 192 193 178 167 161 165 163 153 147 149 147 151 154 156 155 155 157 163 181 247 279 278 273 270 266 262 258 257 255 253 251 248 245 242 234 232
185 167 183 210 187 179 199 199 185 175 165 158 152 147 146 148 148 150 149 150 151 152 155 165 194 243 272 279 279 276 274 273 272 267 262 260 258 255 253 248 242 236 232 231
Wind_Speed_850mb
25 17 27 28 16 10 12 9 9 6 5 9 12 15 15 15 15 25 37 40 45 49 41 45 45 43 42 43 48 50 52 50 51 53 51 49 48 43 44 45 41 41 38 39
10 29 13 16 16 13 9 12 9 0 2 8 6 20 14 14 22 35 42 43 50 51 52 51 51 51 51 50 48 52 54 53 53 54 55 52 46 45 44 43 41 44 46 44
19 15 23 16 11 16 7 14 11 6 3 3 4 14 13 11 33 44 40 40 42 54 58 56 55 55 55 57 53 54 54 56 53 52 54 55 56 55 53 51 48 45 47 49
12 7 23 15 12 12 11 13 11 11 8 7 5 10 10 14 19 15 54 56 62 61 61 58 58 57 56 52 51 49 55 59 56 56 57 60 62 61 52 46 40 40 42 39
12 19 24 12 17 16 11 13 13 6 8 4 2 4 13 4 12 17 45 63 70 70 70 72 63 55 52 53 48 46 47 50 55 59 61 62 65 65 60 58 52 47 41 39
6 6 17 15 9 7 20 15 15 10 6 5 11 10 9 11 20 17 42 59 69 76 72 65 61 59 59 55 53 51 46 48 50 54 56 60 61 62 62 61 58 55 52 48
4 4 4 12 16 8 8 13 6 3 3 10 2 3 14 18 18 12 8 15 13 18 28 33 38 46 49 52 53 52 51 45 46 49 49 49 51 55 57 56 58 57 54 52
26 10 17 9 14 19 14 17 11 13 8 6 1 13 12 25 23 34 36 18 11 8 13 17 21 23 26 31 34 33 35 36 36 37 39 40 44 48 50 53 54 53 52 50
15 7 2 5 9 25 12 11 15 14 3 4 9 12 22 14 18 28 23 25 26 13 14 20 22 20 20 20 20 19 17 18 22 27 30 34 38 43 47 51 53 49 45 43
15 11 1 5 11 6 20 23 8 4 8 8 6 9 11 4 5 6 12 27 30 29 28 27 27 24 20 16 14 14 15 16 21 24 25 28 32 34 36 37 39 43 43 46
13 10 6 11 13 17 9 14 6 12 9 10 2 11 10 9 9 8 16 20 33 35 32 31 26 21 18 16 14 12 12 13 14 15 16 18 21 22 23 24 24 26 29 27
11 12 9 9 1 1 5 16 13 13 10 1 6 10 2 9 14 18 20 25 30 33 34 29 26 23 19 16 13 11 9 10 11 13 14 15 16 17 19 19 16 14 9 9
17 3 10 7 6 4 10 2 10 13 6 13 9 10 3 4 2 4 19 27 30 34 34 30 25 23 20 16 12 10 9 8 9 9 11 11 11 12 12 9 7 7 9 13
22 8 13 20 10 16 14 12 12 13 6 10 14 7 10 9 7 10 22 30 35 35 33 29 22 17 14 13 11 10 10 9 9 10 11 10 8 8 10 10 11 12 14 17
10 9 5 11 8 14 14 29 24 36 42 25 31 28 10 16 17 20 27 31 31 32 32 27 24 20 19 19 19 19 19 18 17 15 12 11 12 12 12 12 14 15 13 14
5 6 8 9 8 8 10 21 36 42 28 24 9 11 13 20 26 26 35 37 38 34 25 22 22 20 21 23 24 25 23 23 20 18 17 16 15 14 13 13 11 11 11 14
12 11 7 4 4 12 7 28 25 24 13 34 24 17 14 12 27 50 47 46 41 32 28 23 21 16 14 15 19 22 26 27 24 21 19 16 16 16 13 12 12 14 16 17
19 15 6 8 4 5 18 17 31 42 25 34 5 19 28 34 69 66 54 49 39 34 29 22 12 11 13 15 17 22 25 28 26 22 19 17 16 17 16 14 13 15 19 23
4 13 7 14 9 8 14 15 18 19 31 23 38 23 37 37 29 28 42 48 44 42 31 22 14 11 10 12 12 13 18 22 22 20 17 17 18 17 17 17 16 17 19 21
8 10 9 8 14 23 15 19 24 16 29 27 42 21 30 38 15 29 66 61 54 39 29 20 18 15 11 8 7 9 14 16 17 16 17 18 17 16 15 15 16 19 21 23
8 7 19 4 6 19 9 19 50 18 26 25 49 52 52 25 56 56 53 54 43 37 30 25 20 14 10 8 5 7 10 14 14 13 14 13 12 14 15 17 20 23 25 27
14 15 10 8 4 36 13 23 35 17 13 16 16 43 63 62 36 34 57 54 43 37 32 25 18 12 8 5 2 3 4 6 9 11 12 13 15 18 19 22 24 27 29 30
4 14 14 22 19 5 47 14 39 24 27 23 22 25 45 56 44 56 58 53 44 33 27 22 16 11 7 3 2 2 3 5 8 11 14 17 20 22 24 26 28 30 34 34
5 5 8 9 10 12 59 16 38 22 16 22 25 33 46 56 59 60 57 48 38 30 24 20 16 11 7 4 5 7 9 10 12 14 18 21 24 25 28 29 32 34 37 40
6 18 12 3 5 10 20 31 38 36 30 35 36 42 52 60 54 50 47 40 33 26 22 17 14 10 5 4 6 10 15 17 19 22 24 27 30 31 32 33 35 38 40 40
12 13 14 10 35 20 24 59 41 48 53 55 62 57 50 49 48 42 39 33 29 23 17 11 7 6 9 12 16 20 22 24 26 28 30 32 32 34 36 38 42 46 49 51
Wind_Direction_850mb
174 173 194 185 166 155 146 133 163 201 198 159 201 249 235 216 221 233 235 233 229 228 227 228 228 229 231 230 232 234 234 237 239 241 241 241 248 252 256 248 248 250 253 256
129 204 191 150 141 131 136 154 196 294 60 157 169 254 261 216 243 226 230 237 239 239 237 235 234 232 235 237 238 238 237 239 240 244 249 252 259 263 264 261 258 255 255 257
171 183 156 141 144 141 160 167 183 161 83 60 50 283 261 242 239 249 245 240 246 246 246 242 240 237 237 239 242 245 246 245 243 245 248 250 254 256 256 254 257 260 259 259
161 128 149 140 168 130 163 194 143 130 108 221 102 274 257 237 234 219 242 241 242 244 249 249 243 240 239 244 249 252 253 247 246 244 246 246 250 254 260 265 269 268 267 268
176 153 155 153 173 159 210 130 136 102 104 59 359 274 264 17 254 238 242 237 241 245 251 251 247 243 241 242 243 242 248 246 240 241 245 249 251 257 261 262 264 265 266 267
111 159 161 161 80 137 155 86 57 55 85 282 215 170 259 193 209 230 228 233 238 243 249 256 252 244 239 239 237 239 243 239 235 236 240 244 249 253 257 261 263 266 268 269
89 182 127 140 92 39 95 104 41 10 350 220 91 180 254 253 242 212 224 210 242 259 251 251 244 237 236 234 232 233 233 237 239 236 237 240 247 251 256 260 262 264 265 266
164 199 175 182 172 158 175 154 151 182 202 227 233 232 242 233 262 249 236 218 220 267 232 212 204 207 209 209 212 219 225 230 235 237 238 241 244 249 255 260 263 265 267 266
150 188 70 157 158 153 187 188 148 106 48 57 215 296 302 258 259 256 230 215 216 198 184 173 166 167 173 180 186 195 207 215 225 232 237 243 248 255 261 262 263 262 261 263
180 117 277 167 98 29 179 150 165 48 138 251 279 273 239 236 157 152 199 204 179 162 155 154 152 157 165 173 184 198 210 222 231 238 242 247 250 253 257 258 259 257 256 258
123 105 197 140 210 160 123 181 103 122 159 171 200 261 220 260 290 277 240 200 175 165 159 156 153 156 162 166 173 179 189 200 215 224 232 239 247 253 256 258 255 250 246 244
166 115 142 180 243 169 183 172 154 182 209 169 146 272 125 283 274 257 243 191 179 167 158 156 154 152 151 152 154 163 178 201 221 235 242 250 261 269 275 272 270 268 269 251
176 123 101 56 353 27 206 244 126 102 95 190 152 254 301 8 16 123 161 169 169 162 157 154 154 155 155 156 167 177 191 203 220 233 242 243 243 252 260 248 242 249 253 259
122 150 162 183 194 130 157 163 162 137 184 163 217 206 241 201 197 153 145 154 157 155 154 155 157 156 165 178 193 209 224 235 240 243 245 252 257 262 262 246 231 231 245 243
136 140 94 32 130 123 151 176 179 198 217 197 233 215 213 205 194 185 160 159 166 166 163 164 167 180 199 214 222 229 232 235 241 244 249 246 243 243 251 243 225 231 233 239
5 175 110 29 10 125 137 175 188 208 209 239 129 231 224 202 188 198 193 185 183 177 178 187 196 207 213 217 221 222 228 229 231 236 239 238 238 244 249 240 222 219 231 235
117 124 99 187 349 88 354 207 190 208 193 215 217 194 180 191 202 214 205 199 191 192 194 207 214 219 231 235 239 234 231 233 232 231 233 238 243 247 248 236 219 215 222 231
148 124 99 149 89 146 246 179 190 202 203 211 118 171 180 203 213 221 217 201 201 203 209 206 201 228 234 236 235 233 229 231 230 230 235 241 243 246 250 256 245 231 228 230
158 141 116 152 188 289 245 213 158 165 237 200 216 193 196 211 219 236 221 225 217 211 202 188 193 192 197 210 220 222 219 221 223 225 229 234 237 238 239 239 237 234 232 229
51 92 119 131 155 209 238 165 149 89 273 195 204 182 180 168 201 234 221 209 201 194 187 188 191 189 189 192 202 214 219 217 218 222 225 231 235 238 238 238 238 234 228 229
88 44 199 111 219 273 252 154 146 155 256 171 204 202 184 187 214 228 205 194 187 179 175 173 169 165 155 156 170 197 210 212 221 228 233 238 245 247 245 244 243 241 237 233
149 139 189 85 133 253 145 140 168 194 159 162 182 204 197 205 206 191 181 178 174 168 159 160 161 159 150 134 157 224 239 237 235 239 242 245 248 250 248 243 241 238 237 235
171 181 163 178 212 213 177 183 200 179 184 193 195 191 204 197 180 167 163 163 159 156 155 156 157 153 144 128 50 2 296 259 252 250 250 251 250 248 247 245 243 237 236 233
245 145 155 100 207 204 187 184 185 187 195 191 195 198 192 182 168 159 155 151 152 155 159 156 157 160 175 217 266 292 291 280 267 259 257 254 254 254 251 247 244 239 235 232
171 140 161 262 43 75 212 195 192 193 178 167 161 165 163 153 147 149 147 151 154 156 155 155 157 163 181 247 279 278 273 270 266 262 258 257 255 253 251 248 245 242 234 232
185 167 183 210 187 179 199 199 185 175 165 158 152 147 146 148 148 150 149 150 151 152 155 165 194 243 272 279 279 276 274 273 272 267 262 260 258 255 253 248 242 236 232 231